Regional Weather Roundup
Issued by NWS Huntsville, AL

Home | Current Version | Previous Version | Text Only | Print | Product List | Glossary On
Versions: 1 2 3 4 5 6 7 8 9 10 11 12 13 14 15 16 17 18 19 20 21 22 23 24 25 26 27 28 29 30 31 32 33 34 35 36 37 38 39 40 41 42 43 44 45 46 47 48 49 50
000
ASUS44 KHUN 241510
RWRHUN

WEATHER ROUNDUP FOR THE TENNESSEE VALLEY
NATIONAL WEATHER SERVICE HUNTSVILLE AL
900 AM CST MON NOV 24 2014

ALZ001>004-241600-
NORTHWEST ALABAMA

CITY           SKY/WX    TMP DP  RH WIND       PRES   REMARKS
COURTLAND HCN    N/A     59 N/A N/A W13         N/A
RUSSELLVILLE     N/A     59 N/A N/A MISG        N/A
SHOALS AIRPORT PTSUNNY   60  47  61 W20G29    29.78R
SHOALS TVA RES   N/A     59 N/A N/A MISG        N/A
$$

ALZ005>007-016-241600-
NORTH CENTRAL ALABAMA

CITY           SKY/WX    TMP DP  RH WIND       PRES   REMARKS
CULLMAN AG STN   N/A     63 N/A N/A SW15        N/A
DECATUR AP     PTSUNNY   61  48  62 SW15G25   29.77R
HUNTSVILLE AP  PTSUNNY   63  49  60 W22G29    29.77R
HUN NWS/UAH      N/A     62  47  58 W10         N/A
MERIDIANVILLE  MOSUNNY   63  46  55 SW16G22   29.76R
REDSTONE ARSN  PTSUNNY   62  49  63 W22       29.76R
VINEMONT AP    FAIR      60  50  69 W7G23     29.80R
$$

ALZ008>010-241600-
NORTHEAST ALABAMA

CITY           SKY/WX    TMP DP  RH WIND       PRES   REMARKS
ALBERTVILLE    CLOUDY    63  59  88 SW14G24   29.78R
FORT PAYNE     PTSUNNY   63  54  72 SW14G25   29.77R
SCOTTSBORO AP  PTSUNNY   66  54  63 SW15G28   29.76R
SCOTTSBORO HCN   N/A     64 N/A N/A MISG        N/A
VALLEY HEAD      N/A     63 N/A N/A MISG        N/A
$$

TNZ076-096-097-241600-
SOUTHEASTERN MIDDLE TENNESSEE

CITY           SKY/WX    TMP DP  RH WIND       PRES   REMARKS
TULLAHOMA      MOSUNNY   61  48  63 SW13      29.73R
WINCHESTER     SUNNY     63  50  63 SW21      29.74R
$$

...SURROUNDING SITES...

CITY           SKY/WX    TMP DP  RH WIND       PRES   REMARKS
ATLANTA        PTSUNNY   66  59  78 SW9       29.82R
ANNISTON       MOSUNNY   66  58  75 SW15G25   29.80R
BIRMINGHAM     PTSUNNY   64  54  69 W15G25    29.83R
CHATTANOOGA    PTSUNNY   66  55  67 SW18      29.74R
CORINTH        CLOUDY    52  41  66 NW16      29.82R
DALTON         PTSUNNY   63  59  88 S8G16     29.77R
GADSDEN        PTSUNNY   66  55  68 SW10G16   29.78R
GOLDEN TRNGL   PTSUNNY   55  45  67 W16       29.85R
HALEYVILLE     FAIR      57  47  69 W15G26    29.82R
JACKSON TN     MOSUNNY   48  35  60 W18G25    29.80R
LEWISBURG      FAIR      62  47  58 SW17      29.70R
MEMPHIS        MOSUNNY   51  36  56 W16G25    29.84R
MURFREESBORO   FAIR      62  45  53 SW13G24   29.68R
NASHVILLE      PTSUNNY   57  47  69 W17G29    29.68R
OXFORD MS      PTSUNNY   50  37  62 W16G26    29.87R
ROME           CLOUDY    66  58  75 SW10G21   29.77R
SAVANNAH       CLOUDY    50  41  71 W10       29.80R
TUPELO         CLOUDY    54  41  61 W9        29.84R
TUSCALOOSA     PTSUNNY   64  53  67 W14G20    29.83R
$$

...GULF COAST WEATHER...

CITY           SKY/WX    TMP DP  RH WIND       PRES   REMARKS
GULFPORT       MOSUNNY   70  63  78 W8        29.85R
PASCAGOULA     MOSUNNY   71  63  75 W7        29.85R
MOBILE         PTSUNNY   71  63  75 W8        29.85R
GULF SHORES    CLOUDY    66  66  99 W6        29.85S FOG
PENSACOLA      PTSUNNY   70  67  90 W9        29.85R
DESTIN         MOSUNNY  N/A N/A N/A VRB5      29.86R
PANAMA CITY    LGT RAIN  70  70 100 SW3       29.88R FOG
APPALACHICOLA  HVY RAIN  73  70  90 SW14G21   29.89R VSB 3/4
$$




USA.gov is the U.S. government's official web portal to all federal, state and local government web resources and services.